Location: Unspecified
(0.0000°N, 0.0000°E)
Time: 16:14:06
(UTC+00:00)

deb r/b Ablestar - Pass Details

Date: 12 April 2026
Orbit: 780 x 880 km, 66.7° (Epoch: 13 May)

Event Time Altitude Azimuth Distance (km) Brightness Sun altitude
Exits shadow 05:02:09 - 203° (SSW) 3,330 ? -14.5°
Rises 05:02:10 0° 203° (SSW) 3,323 ? -14.5°
Reaches altitude 10° 05:04:38 10° 205° (SSW) 2,377 ? -13.9°
Maximum altitude 05:10:03 73° 290° (WNW) 823 ? -12.6°
Drops below altitude 10° 05:15:22 10° 14° (NNE) 2,327 ? -11.2°
Sets 05:17:45 0° 16° (NNE) 3,248 ? -10.7°
